Regional Weather Roundup
Issued by NWS Sioux Falls, SD

Home | Current Version | Previous Version | Graphics & Text | Print | Product List | Glossary Off
Versions: 1 2 3 4 5 6 7 8 9 10 11 12 13 14 15 16 17 18 19 20 21 22 23 24 25 26 27 28 29 30 31 32 33 34 35 36 37 38 39 40 41 42 43 44 45 46 47 48 49 50

000
ASUS43 KFSD 261702
RWRFSD

WEATHER ROUNDUP FOR SE SOUTH DAKOTA/SW MINNESOTA/NW IOWA
NATIONAL WEATHER SERVICE SIOUX FALLS SD
1200 PM CDT TUE JUL 26 2016

NOTE: "FAIR" INDICATES FEW OR NO CLOUDS BELOW 12,000 FEET WITH NO
SIGNIFICANT WEATHER AND OR OBSTRUCTIONS TO VISIBILITY.


SDZ038>040-050-052>070-261800-
SOUTHEAST SOUTH DAKOTA

CITY           SKY/WX    TMP DP  RH WIND       PRES   REMARKS
BROOKINGS      MOSUNNY   82  67  60 SW10      30.06S
CHAMBERLAIN    PTSUNNY   89  70  53 SW8       30.02S HX  95
HURON          SUNNY     85  67  54 S9        30.00F
MADISON        FAIR      81  68  65 SW9       30.07S
MITCHELL       SUNNY     86  65  49 S10G17    30.03S
SIOUX FALLS    MOSUNNY   83  64  52 S8        30.06F
WINNER         FAIR      89  64  43 SW10      30.04R
YANKTON        SUNNY     84  63  48 S13       30.03F
$$

MNZ071-072-080-081-089-090-097-098-261800-
SOUTHWEST MINNESOTA

CITY           SKY/WX    TMP DP  RH WIND       PRES   REMARKS
FAIRMONT       SUNNY     82  63  51 S8        30.07F
JACKSON        SUNNY     82  61  47 SW12      30.09F
LUVERNE        SUNNY     81  64  57 SW7       30.08F
MARSHALL       SUNNY     84  64  50 W10       30.05S
MONTEVIDEO     SUNNY     84  66  54 W10       30.04S
REDWOOD FALLS  SUNNY     84  63  49 S7        30.04F
TRACY          SUNNY     85  65  52 W5        30.07S
WINDOM         SUNNY     84  64  51 SW12      30.07F
WORTHINGTON    SUNNY     82  68  62 SW13G18   30.09F
$$

IAZ001>003-012>014-020>022-031-032-NEZ013-014-SDZ071-261800-
NORTHWEST IOWA

CITY           SKY/WX    TMP DP  RH WIND       PRES   REMARKS
CHEROKEE       SUNNY     83  64  52 S8        30.09F
DENISON        SUNNY     82  66  57 S6        30.09R
ESTHERVILLE    SUNNY     81  65  58 SW10      30.09S
LE MARS        SUNNY     82  68  61 S10G17    30.09S
SHELDON        SUNNY     82  68  61 SW9       30.07F
SIOUX CITY     SUNNY     85  68  56 SW12      30.08S
SPENCER        SUNNY     83  64  52 SW9       30.09S
STORM LAKE     SUNNY     81  66  61 S7        30.11S
$$

ABBREVIATIONS USED IN REMARKS
   TC - TEMPERATURE IN CELSIUS
  WCI - WIND CHILL INDEX
   HX - HEAT INDEX
  VSB - VISIBILITY





USA.gov is the U.S. government's official web portal to all federal, state and local government web resources and services.